Temp
62 64 66 69 69 64 66 69 68 68 68 65 65 64 64 64 64 64 65 64 65 64 64 64 63 64 63 63 63 62 61 59 61 60 58 57 59 60 60 62 61 59 60
54 56 57 64 66 68 64 68 69 67 68 67 66 65 66 65 64 64 64 65 64 63 64 63 62 64 63 63 61 61 60 60 61 59 56 52 54 57 59 59 60 59 60
50 52 54 53 54 57 61 66 68 67 68 68 63 60 61 61 61 62 63 63 62 62 63 62 63 63 62 61 61 61 61 60 60 58 57 52 51 54 56 57 58 57 57
51 51 51 52 52 52 55 67 68 67 68 66 63 62 63 62 64 64 64 61 61 61 62 61 63 63 62 61 61 62 61 60 59 59 59 58 57 53 51 54 56 57 58
49 48 52 53 52 53 52 64 68 67 67 65 65 63 63 62 59 60 61 60 60 61 62 63 62 62 62 62 61 61 61 60 60 60 57 56 57 55 54 51 52 54 58
47 49 51 52 51 51 53 61 64 65 66 65 64 64 61 59 59 59 60 58 59 61 62 62 62 62 61 61 61 61 61 61 61 60 59 58 56 54 53 52 53 54 54
46 47 46 46 48 49 51 59 65 65 64 64 62 62 60 60 59 59 59 58 59 60 60 62 61 61 62 62 62 61 61 61 60 60 59 60 59 59 57 55 53 52 53
44 45 45 44 45 48 49 53 64 63 63 63 62 61 60 60 60 59 59 60 61 61 61 61 62 61 61 61 61 61 61 61 60 59 58 58 58 59 59 57 54 51 52
42 43 43 44 44 45 47 49 61 62 63 62 61 60 60 59 59 59 60 61 61 60 60 60 60 60 60 60 60 60 60 60 60 60 58 59 59 59 59 60 58 55 50
41 41 41 42 44 44 46 48 53 61 62 61 60 60 60 59 59 59 57 58 57 58 58 58 58 58 59 59 59 59 60 60 60 59 58 58 58 57 59 58 59 57 54
38 39 40 41 42 44 44 46 49 59 60 60 60 59 59 59 58 58 57 57 57 58 58 58 58 58 58 59 58 58 59 59 59 59 59 58 58 56 55 56 56 55 55
37 38 39 39 39 41 43 44 45 49 55 60 59 59 59 59 59 57 57 58 57 57 57 58 58 58 57 58 57 57 57 58 57 58 58 58 58 56 55 55 54 54 54
36 36 37 36 37 38 40 41 42 45 49 57 59 58 59 60 60 60 59 59 57 58 58 58 57 57 57 57 57 57 57 58 58 58 57 57 58 56 55 55 54 54 54
35 35 34 34 35 36 37 39 40 43 46 49 53 56 58 58 57 56 57 56 55 53 52 52 51 51 52 55 57 57 57 57 57 58 58 57 57 56 55 55 54 54 53
33 33 33 33 34 34 36 38 40 41 44 44 44 45 49 51 50 49 48 48 47 47 47 46 45 44 45 44 45 55 56 51 48 47 45 44 44 45 51 55 54 54 53
32 32 33 33 33 33 34 36 38 39 42 41 40 41 42 43 42 42 42 42 41 41 42 40 39 39 40 38 40 47 48 46 44 41 40 39 39 37 37 37 35 38 51
31 32 32 32 33 33 33 34 36 38 39 39 38 38 38 38 38 38 38 37 37 39 38 37 37 35 36 37 37 38 40 39 39 39 39 38 37 36 35 35 34 34 34
31 31 31 32 32 33 33 34 35 35 35 35 36 37 36 34 35 35 35 35 35 35 36 35 35 34 35 35 36 36 36 35 34 35 37 36 35 35 35 34 32 31 31
32 31 32 32 32 32 33 33 32 33 33 32 33 33 35 33 34 32 32 33 33 33 33 34 34 33 33 35 35 35 34 32 32 34 35 35 34 35 36 33 31 30 30
32 32 32 32 32 32 32 32 30 30 29 31 31 33 33 33 32 32 32 32 32 31 32 31 32 33 32 34 34 34 33 31 31 32 32 33 33 34 34 32 31 28 27
31 31 31 30 31 33 31 28 27 26 28 30 30 31 31 32 32 32 32 31 31 30 30 30 30 31 32 32 34 34 32 31 31 31 31 32 33 33 33 32 29 27 27
28 28 28 29 31 32 31 28 27 28 28 28 28 28 29 30 30 30 30 30 29 28 28 28 29 30 30 32 32 32 32 31 30 28 30 31 33 32 32 30 30 28 25
26 28 27 28 29 31 31 27 28 28 28 27 26 27 27 27 28 28 28 27 28 27 27 27 27 27 29 30 31 31 30 30 27 27 28 28 28 28 28 29 28 24 22
23 25 26 25 26 28 30 30 30 30 28 26 26 26 26 26 27 27 27 26 26 25 25 26 26 27 28 28 29 29 27 27 25 24 24 24 24 22 22 22 23 21 20
22 22 22 23 23 26 27 29 32 30 28 27 26 25 25 25 26 26 26 26 26 26 25 25 26 26 26 28 29 28 26 24 24 23 22 21 20 19 19 19 19 20 19
20 20 20 21 22 23 24 26 29 30 30 28 27 25 25 24 24 25 26 29 29 29 29 30 29 30 31 31 30 29 28 27 25 21 18 17 17 16 17 16 16 17 16
MSLP
1002.86 1002.37 1001.44 1000.16 999.60 999.53 999.87 999.87 1000.36 1000.93 1001.55 1002.63 1003.20 1003.86 1003.87 1004.93 1005.50 1005.85 1006.07 1006.76 1007.43 1008.11 1008.70 1009.25 1009.64 1010.20 1010.65 1011.09 1011.48 1012.10 1012.56 1013.20 1013.69 1014.32 1015.12 1015.68 1015.69 1015.81 1016.07 1016.33 1016.73 1017.31 1017.63
1003.78 1003.11 1002.47 1000.82 999.56 998.88 998.88 999.17 999.45 999.95 1000.49 1001.15 1001.88 1002.49 1002.88 1004.19 1004.56 1005.13 1005.82 1006.38 1007.11 1007.63 1008.33 1008.88 1009.30 1009.89 1010.35 1010.85 1011.28 1011.65 1012.14 1012.70 1013.21 1013.78 1014.77 1015.65 1016.08 1016.08 1015.91 1016.55 1016.96 1017.34 1017.63
1004.72 1004.13 1003.17 1002.38 1001.13 999.96 999.06 998.72 998.63 999.03 999.34 1000.15 1001.60 1002.51 1003.36 1003.95 1004.59 1005.19 1005.56 1006.21 1006.73 1007.34 1007.98 1008.43 1008.76 1009.47 1009.99 1010.36 1010.74 1011.25 1011.45 1012.02 1012.73 1013.09 1013.87 1015.02 1015.41 1015.67 1016.24 1016.74 1017.10 1017.49 1017.75
1004.88 1004.82 1003.86 1002.82 1001.76 1000.72 999.74 998.25 997.92 998.19 998.93 999.96 1000.67 1001.33 1001.77 1002.71 1003.25 1004.16 1004.96 1005.89 1006.51 1007.14 1007.71 1008.14 1008.47 1008.96 1009.46 1010.00 1010.30 1010.75 1011.10 1011.62 1012.06 1012.96 1013.15 1013.51 1013.99 1014.79 1016.08 1016.86 1017.14 1017.50 1017.66
1005.17 1005.16 1004.23 1003.33 1002.22 1001.09 999.89 997.86 997.59 997.96 998.79 998.97 999.82 1000.58 1001.52 1002.07 1003.14 1004.82 1005.32 1005.85 1006.42 1006.92 1007.47 1007.80 1008.06 1008.65 1009.14 1009.51 1009.88 1010.34 1010.75 1011.25 1011.55 1011.96 1012.76 1013.50 1013.69 1014.26 1014.38 1015.78 1016.85 1017.44 1017.36
1005.84 1005.36 1004.54 1003.38 1002.37 1001.46 1000.01 997.90 997.62 997.89 998.41 999.19 999.55 1000.08 1000.76 1001.74 1002.98 1004.37 1005.12 1005.72 1006.15 1006.63 1007.08 1007.44 1007.74 1008.23 1008.69 1009.18 1009.56 1010.04 1010.34 1010.70 1010.99 1011.57 1012.00 1012.43 1013.22 1013.38 1013.90 1014.95 1016.12 1016.65 1016.91
1006.63 1006.05 1004.87 1003.95 1003.32 1002.10 1000.44 998.63 997.48 997.70 998.36 999.18 999.75 1000.00 1000.35 1001.12 1002.16 1003.76 1004.72 1005.25 1005.66 1006.30 1006.60 1006.98 1007.46 1007.87 1008.29 1008.73 1009.20 1009.58 1009.97 1010.19 1010.49 1010.88 1011.42 1011.89 1012.35 1012.56 1013.44 1014.33 1015.43 1016.12 1016.65
1007.45 1006.54 1005.40 1005.12 1004.15 1002.81 1001.14 999.42 998.13 998.05 998.49 999.25 999.92 1000.44 1000.30 1001.31 1001.98 1002.92 1003.74 1004.41 1004.87 1005.34 1006.00 1006.65 1007.01 1007.39 1007.94 1008.39 1008.83 1009.17 1009.39 1009.74 1010.04 1010.42 1011.10 1011.04 1011.86 1011.88 1012.92 1013.65 1014.73 1015.74 1016.23
1008.07 1007.17 1006.67 1005.98 1004.78 1003.59 1002.13 1000.56 998.69 998.17 998.60 998.95 999.98 1000.46 1000.77 1000.80 1001.84 1002.77 1003.47 1004.07 1004.38 1004.98 1005.61 1006.23 1006.57 1007.01 1007.53 1008.07 1008.45 1008.68 1008.83 1009.08 1009.33 1009.78 1010.55 1010.68 1011.01 1012.09 1012.61 1013.22 1013.92 1014.66 1015.62
1008.51 1007.97 1007.38 1006.44 1005.37 1004.51 1002.74 1001.07 999.53 998.13 999.14 998.87 999.34 1000.70 1000.63 1001.08 1001.68 1002.57 1003.49 1004.02 1004.34 1004.80 1005.44 1005.99 1006.43 1007.01 1007.41 1007.86 1008.13 1008.25 1008.35 1008.42 1008.64 1009.05 1009.71 1010.12 1010.88 1011.71 1012.27 1012.89 1013.43 1013.95 1014.37
1009.44 1008.83 1008.28 1007.61 1006.62 1005.18 1003.88 1002.21 1000.67 998.86 999.15 999.16 1000.20 1000.66 1000.87 1001.56 1001.90 1002.68 1003.38 1003.90 1004.41 1004.66 1005.20 1005.61 1006.35 1007.02 1007.32 1007.62 1007.79 1007.75 1007.72 1007.62 1007.27 1007.97 1008.86 1009.69 1010.55 1011.41 1012.01 1012.48 1013.27 1013.57 1013.75
1011.12 1010.61 1009.70 1008.78 1007.71 1006.52 1004.96 1003.82 1002.81 1001.17 1000.30 999.78 1000.70 1001.05 1001.20 1001.46 1002.39 1002.87 1003.43 1003.81 1004.36 1004.80 1005.08 1005.53 1006.34 1006.85 1007.03 1007.23 1007.41 1007.40 1007.41 1007.04 1007.36 1007.74 1008.44 1009.22 1010.25 1011.19 1011.76 1012.52 1012.99 1013.49 1013.42
1011.90 1011.41 1010.55 1009.43 1008.63 1007.67 1006.39 1005.34 1004.11 1002.90 1002.32 1001.33 1000.83 1001.24 1001.58 1001.76 1002.28 1002.81 1003.29 1003.83 1004.27 1004.95 1005.23 1005.61 1006.36 1006.72 1007.00 1007.19 1007.30 1007.25 1007.13 1007.05 1007.34 1007.89 1008.22 1008.74 1009.69 1010.73 1011.57 1012.36 1012.95 1013.23 1013.78
1012.25 1012.27 1011.64 1010.74 1009.75 1008.65 1007.60 1006.48 1005.28 1004.09 1003.42 1002.72 1002.04 1001.88 1001.68 1001.83 1002.33 1002.86 1003.55 1004.19 1004.31 1005.08 1005.75 1006.25 1006.83 1007.23 1007.37 1007.24 1007.23 1007.14 1007.18 1007.20 1007.48 1007.67 1008.25 1008.52 1009.52 1010.25 1011.21 1012.16 1012.76 1013.22 1013.98
1013.51 1013.25 1012.61 1011.77 1010.87 1009.73 1008.72 1007.75 1006.73 1005.77 1005.14 1004.41 1003.68 1003.06 1002.10 1002.83 1002.92 1003.61 1004.42 1005.06 1005.44 1005.81 1006.51 1007.10 1007.53 1008.13 1008.27 1008.36 1007.93 1007.24 1007.23 1007.68 1008.24 1008.92 1009.37 1009.57 1010.12 1010.57 1011.16 1011.92 1012.64 1013.44 1014.01
1014.42 1014.19 1013.87 1013.09 1012.04 1011.18 1010.23 1009.35 1008.59 1007.79 1006.71 1006.30 1005.71 1005.04 1003.87 1004.66 1004.42 1004.75 1005.71 1006.24 1006.87 1007.15 1007.42 1008.12 1008.38 1008.94 1009.26 1009.10 1008.22 1007.93 1008.21 1008.69 1009.09 1009.92 1010.59 1010.76 1011.51 1012.00 1012.27 1012.67 1013.20 1013.52 1013.64
1015.24 1015.01 1014.50 1013.88 1013.30 1012.49 1011.69 1010.64 1009.71 1008.94 1007.98 1007.50 1006.75 1006.67 1006.81 1005.99 1006.31 1006.48 1007.21 1007.54 1008.01 1008.47 1008.65 1009.14 1009.48 1010.01 1010.29 1010.02 1009.42 1009.10 1009.38 1009.91 1010.55 1010.86 1011.30 1011.97 1012.86 1013.02 1013.39 1013.67 1014.09 1014.51 1014.67
1015.88 1015.56 1015.14 1014.66 1014.11 1013.44 1012.58 1011.72 1011.08 1010.42 1009.76 1009.46 1008.92 1008.61 1009.02 1008.12 1007.77 1008.67 1008.54 1008.99 1009.29 1009.85 1010.19 1010.33 1010.38 1010.93 1011.43 1011.15 1010.71 1010.55 1010.67 1011.21 1011.79 1012.20 1012.43 1012.77 1013.42 1013.83 1014.01 1014.39 1015.09 1015.91 1016.17
1016.71 1016.42 1015.91 1015.38 1014.73 1014.38 1013.87 1013.20 1012.57 1012.04 1011.46 1011.30 1010.80 1010.47 1010.45 1010.14 1010.29 1010.16 1010.19 1010.28 1010.63 1011.14 1011.69 1011.89 1011.73 1011.65 1012.16 1012.19 1011.91 1011.79 1012.04 1012.63 1013.23 1013.42 1013.72 1014.12 1014.37 1015.05 1015.12 1015.16 1015.86 1017.07 1018.00
1017.16 1016.94 1016.66 1016.27 1015.55 1015.31 1015.07 1014.60 1014.31 1013.72 1013.32 1013.08 1012.69 1012.15 1011.67 1011.61 1012.19 1011.46 1011.64 1012.01 1012.05 1012.32 1012.95 1013.17 1013.35 1013.35 1012.88 1013.05 1012.98 1013.01 1013.35 1013.73 1014.39 1014.77 1015.02 1015.20 1015.40 1015.86 1016.26 1016.38 1016.79 1017.57 1018.70
1018.04 1017.80 1017.56 1017.25 1016.91 1016.59 1016.28 1016.07 1015.92 1015.41 1015.05 1014.46 1014.31 1013.97 1013.85 1013.50 1013.61 1013.18 1013.11 1013.29 1013.70 1013.17 1014.06 1014.18 1014.55 1014.68 1014.29 1014.17 1014.25 1014.30 1014.28 1015.05 1015.68 1016.11 1016.18 1016.41 1016.35 1016.53 1017.04 1017.55 1018.21 1019.03 1019.88
1018.96 1018.60 1018.37 1018.08 1017.80 1017.54 1017.00 1017.03 1016.99 1017.05 1016.27 1015.67 1015.66 1015.71 1015.53 1015.30 1015.06 1015.12 1014.80 1014.79 1014.72 1014.53 1015.21 1015.20 1015.43 1015.57 1015.60 1015.52 1015.70 1015.75 1015.78 1016.11 1016.63 1017.33 1017.62 1017.87 1017.87 1017.81 1018.21 1018.61 1019.48 1020.23 1020.74
1020.04 1019.60 1019.29 1019.01 1018.74 1018.47 1018.15 1017.67 1017.89 1017.66 1016.95 1016.60 1016.80 1017.10 1016.93 1016.61 1016.43 1016.10 1016.12 1016.66 1016.49 1016.36 1016.44 1016.58 1016.59 1016.63 1016.78 1016.84 1017.25 1017.27 1017.40 1017.76 1017.77 1018.44 1019.21 1019.51 1019.46 1019.51 1019.31 1020.48 1021.03 1021.24 1021.77
1021.20 1020.82 1020.30 1020.15 1019.87 1019.52 1019.05 1018.69 1018.37 1018.25 1017.76 1017.72 1018.00 1018.13 1018.17 1018.08 1017.95 1017.86 1017.73 1017.84 1018.07 1018.12 1017.71 1018.27 1018.46 1017.55 1018.04 1017.95 1018.38 1018.81 1019.03 1019.26 1019.46 1019.66 1019.60 1020.57 1020.77 1020.76 1021.39 1022.21 1022.46 1022.79 1023.11
1022.32 1022.03 1021.88 1021.61 1021.04 1020.60 1020.16 1019.78 1019.28 1018.95 1018.91 1018.94 1019.04 1019.45 1019.62 1019.62 1019.66 1019.48 1019.56 1019.57 1019.70 1019.36 1019.23 1019.38 1019.04 1018.66 1018.58 1019.21 1019.47 1019.55 1019.83 1020.28 1020.48 1020.84 1020.93 1021.34 1021.79 1022.26 1022.88 1023.61 1024.15 1024.05 1024.10
1023.49 1023.14 1023.00 1022.77 1022.28 1021.74 1021.45 1021.02 1020.56 1019.96 1019.93 1020.11 1020.28 1020.64 1020.85 1020.95 1020.94 1020.60 1020.44 1020.41 1020.53 1020.42 1020.41 1020.08 1019.77 1019.62 1019.51 1020.00 1020.32 1020.57 1020.93 1021.23 1021.62 1021.90 1022.43 1023.32 1023.77 1024.11 1024.47 1024.52 1024.78 1024.99 1025.17
Wind_Speed
13 14 14 15 12 9 9 15 16 16 13 10 11 8 11 9 7 8 11 12 10 11 9 7 7 10 9 9 9 6 8 4 6 5 4 3 0 6 6 5 6 6 6
19 18 19 20 12 14 11 14 18 17 16 13 11 6 10 6 7 7 9 11 10 11 10 10 9 10 7 10 9 8 5 3 8 4 4 3 1 1 4 4 5 6 5
17 19 19 18 16 13 7 13 19 19 19 16 9 5 6 4 3 5 7 7 9 10 10 10 10 9 8 7 9 9 11 8 6 5 5 4 3 4 2 3 4 6 6
13 17 17 19 18 17 15 13 17 18 16 16 15 18 15 10 8 8 7 6 8 9 9 9 10 10 7 8 8 8 8 7 9 5 2 2 4 6 5 2 3 4 7
12 17 18 17 18 17 17 12 15 15 15 18 18 15 11 7 6 4 8 7 7 9 9 9 9 9 7 8 8 9 9 7 7 8 5 1 3 2 4 7 4 2 6
15 14 17 18 18 18 16 8 11 13 14 15 15 18 16 13 11 9 10 7 6 7 8 9 8 8 8 8 9 8 10 10 8 8 8 9 9 7 4 4 5 8 4
14 14 18 20 20 21 20 13 11 14 13 13 13 13 16 16 16 13 10 10 8 7 9 9 9 8 8 8 8 9 9 10 9 11 10 9 9 8 5 3 2 3 2
14 16 18 18 18 19 19 16 8 11 12 11 12 10 14 9 9 11 9 8 9 8 8 10 10 9 8 8 8 7 8 10 10 12 9 9 7 8 7 5 5 1 2
15 17 18 17 18 18 18 16 8 10 13 12 10 10 8 11 10 9 8 8 10 7 10 9 8 6 7 7 8 7 9 10 11 13 11 9 8 8 7 7 6 5 6
16 16 16 19 18 16 16 17 14 4 8 13 9 7 8 9 9 8 7 8 6 7 8 7 5 4 4 5 7 7 9 13 11 9 13 9 7 6 6 6 7 4 4
16 16 17 16 16 17 17 17 17 7 7 7 5 7 7 8 8 8 7 7 7 8 8 7 6 6 6 8 8 8 9 11 11 14 15 13 10 5 4 5 3 4 3
12 14 15 16 15 16 16 16 16 13 11 7 3 6 9 10 10 7 7 8 7 6 6 6 5 5 4 4 6 6 4 8 9 12 14 15 11 8 7 6 6 4 4
13 14 15 17 16 15 15 15 16 16 14 6 5 5 7 10 9 9 8 8 8 6 6 6 4 4 4 4 5 6 5 6 9 11 11 13 14 12 7 6 5 6 3
15 14 14 15 16 16 16 15 16 15 15 13 8 2 8 10 11 9 9 8 9 9 8 7 6 5 4 1 4 4 6 6 6 8 11 11 11 11 11 8 7 5 4
14 14 14 15 15 16 16 16 15 16 14 14 13 12 11 7 10 11 10 9 9 9 9 8 8 7 6 5 6 2 4 7 9 9 8 9 10 9 7 7 9 9 6
12 13 14 14 15 15 15 15 14 13 13 14 14 11 11 11 11 12 11 11 10 10 10 10 9 9 7 11 9 6 7 8 9 9 9 11 15 18 20 21 19 9 4
11 11 12 12 12 13 13 14 14 13 13 14 15 16 15 13 14 14 13 12 11 10 11 11 11 11 10 15 15 12 9 10 9 9 8 9 8 11 11 18 20 20 21
10 11 10 11 13 12 13 13 14 15 15 14 13 14 12 12 14 14 14 13 12 11 9 10 12 11 11 16 17 15 12 11 12 10 8 10 9 8 10 12 15 14 14
7 8 9 9 11 13 12 12 14 14 15 15 15 12 11 11 12 15 14 12 12 13 12 10 11 12 11 18 17 13 12 13 12 11 11 10 11 13 14 13 15 14 12
6 7 9 9 12 13 12 12 13 13 15 14 15 15 13 14 10 12 12 11 12 13 11 13 12 16 12 18 18 14 8 12 9 11 12 19 13 17 14 11 11 13 8
10 9 10 10 11 10 10 12 11 13 11 12 12 14 13 14 12 12 10 10 10 12 12 13 12 12 13 16 21 18 10 8 9 9 9 9 21 23 22 18 10 10 8
11 10 9 11 12 11 10 11 12 9 11 12 13 13 13 10 10 11 11 11 10 11 10 11 10 9 11 18 22 23 21 17 11 10 9 12 23 24 24 17 21 18 9
8 9 9 10 11 11 10 11 10 9 11 13 13 12 12 11 11 11 11 8 9 8 9 7 8 8 8 10 21 22 22 20 14 10 18 22 22 23 20 21 19 12 7
9 8 9 10 11 11 11 10 10 9 10 12 12 11 11 11 11 9 8 8 7 7 7 6 5 7 7 7 5 7 8 12 11 12 12 13 14 16 13 10 11 7 6
7 8 8 8 10 10 11 11 9 9 10 10 10 9 9 9 9 10 8 8 9 8 6 6 5 6 7 8 11 9 7 7 9 8 8 8 8 8 8 7 7 6 7
7 8 9 9 10 11 11 11 10 8 6 8 7 6 6 6 6 6 8 19 17 17 17 16 10 7 16 18 18 18 18 17 13 8 8 7 6 6 5 6 6 7 7
Wind_Direction
329 324 288 272 258 228 189 200 191 193 175 176 174 181 178 179 173 182 171 171 175 177 179 180 170 188 186 187 181 168 175 145 153 136 95 51 219 184 175 172 165 170 172
340 336 340 324 270 254 199 196 197 184 185 182 186 177 172 180 179 173 168 169 171 174 177 182 177 189 181 183 179 182 173 152 171 142 117 149 118 250 144 161 174 184 173
341 335 337 331 330 322 229 196 195 191 187 178 147 103 94 88 125 179 164 171 167 170 177 179 175 176 180 182 182 187 186 180 179 168 141 157 192 134 98 178 189 181 187
346 330 332 331 330 314 302 219 194 191 184 172 167 167 175 176 192 182 164 161 163 168 175 178 175 178 176 182 184 189 192 180 185 171 198 106 150 171 141 154 204 195 203
354 328 326 332 326 320 311 240 199 184 180 175 178 173 173 158 116 159 164 167 161 168 182 183 172 177 185 185 182 185 186 194 185 192 160 153 198 83 137 154 169 205 206
346 332 328 339 336 330 322 279 185 184 179 180 175 177 162 151 145 165 185 175 164 173 185 188 180 184 184 183 185 189 194 199 196 190 182 174 185 159 133 118 173 194 207
343 334 346 343 336 335 330 314 180 179 172 178 173 167 158 161 158 171 181 172 169 186 188 181 186 193 187 184 185 188 197 198 191 182 182 181 180 154 141 116 141 147 176
340 339 353 337 335 334 332 333 201 173 171 160 180 180 156 158 163 170 167 173 180 184 179 194 195 182 181 187 191 199 200 200 194 184 194 164 163 151 160 146 133 111 183
347 348 342 336 338 337 332 330 290 176 175 162 162 176 172 155 161 158 161 169 175 166 181 181 172 160 172 186 198 209 206 202 198 195 175 176 149 166 165 173 168 163 184
347 350 347 343 339 336 340 341 341 164 190 159 138 179 159 145 147 145 155 165 149 146 154 152 133 155 173 191 205 219 226 214 200 184 174 157 146 155 173 164 180 180 153
349 350 345 344 342 345 347 348 351 30 113 83 137 159 146 153 143 153 153 153 148 150 154 148 146 211 210 222 223 231 237 213 182 180 175 170 156 158 144 126 141 154 144
352 348 344 345 350 350 354 353 353 3 13 86 141 180 157 150 156 150 151 150 147 139 134 129 150 183 190 202 213 217 232 178 171 167 173 171 170 152 138 142 146 170 81
6 358 353 353 352 351 358 357 358 8 352 314 149 173 175 168 149 152 145 140 127 128 127 126 155 174 197 201 222 213 194 196 169 168 161 154 163 164 149 146 146 132 142
12 359 356 354 350 353 355 359 9 7 6 5 44 339 169 139 114 100 105 106 104 96 79 73 67 44 23 320 208 196 185 178 182 166 168 143 154 156 157 160 157 150 162
16 8 1 355 353 354 356 4 12 9 11 13 31 21 22 73 91 93 87 79 78 84 85 87 71 45 35 1 324 196 129 108 94 71 71 66 76 84 142 165 170 177 176
11 11 6 1 358 358 357 359 6 10 27 27 26 23 31 28 66 67 69 75 72 70 75 66 70 55 40 4 22 91 90 85 96 100 87 80 77 74 78 78 67 52 175
10 6 5 8 0 358 360 5 8 11 24 37 33 32 36 39 46 57 57 60 63 64 72 69 65 59 46 40 51 65 75 80 74 82 92 93 91 92 98 83 74 61 55
15 9 9 10 6 1 7 15 17 22 26 26 29 41 47 37 50 55 59 53 55 55 56 68 75 69 50 50 59 65 76 71 61 53 74 89 83 74 90 91 78 66 57
31 18 13 14 21 15 8 19 27 26 32 28 26 33 38 50 54 55 54 55 64 57 51 49 61 74 64 55 58 66 72 72 65 63 70 79 83 88 99 96 92 83 75
27 31 25 19 25 19 11 25 29 30 32 27 27 29 32 45 41 64 68 65 64 65 58 54 48 56 66 63 66 69 70 74 71 68 69 76 85 80 72 81 96 97 87
38 39 35 27 31 26 30 29 24 30 26 34 34 36 35 42 36 45 52 62 67 79 68 68 55 50 57 64 67 70 76 74 73 66 71 74 84 85 80 77 75 79 93
29 26 35 34 30 26 36 43 35 19 33 45 39 31 32 38 43 46 49 42 51 63 70 74 74 61 58 65 72 74 74 77 78 69 63 74 80 80 84 81 87 83 70
25 24 32 31 26 25 36 47 31 25 38 46 44 36 34 34 34 40 43 44 46 54 56 53 63 66 62 69 69 74 74 76 81 78 78 71 69 66 66 72 69 58 60
22 17 35 33 25 18 24 51 44 34 45 52 45 41 42 40 36 39 39 40 36 40 58 57 60 70 62 56 70 73 76 79 75 77 79 73 69 63 60 53 52 54 54
26 27 24 29 29 24 25 19 36 50 49 54 54 47 44 42 50 54 48 56 52 53 52 48 49 61 76 70 78 82 78 71 70 72 63 64 63 62 61 59 46 47 56
25 39 32 25 22 27 27 16 14 32 65 65 64 63 61 55 48 57 70 67 67 61 58 58 54 60 87 88 88 90 93 93 86 69 70 61 55 66 62 66 63 49 55